STARLINK-31963, 59893

Orbit data source: Space-Track

STARLINK-31963, 59893 is a payload satellite owned by SpaceX/Seattle (US) in LEO that was launched on Tue, 28 May 2024 UTC via an FALCON 9 launch vehicle from the Air Force Eastern Test Range (AFETR). Payload-class satellites include a variety of spacecraft equipped with specific instruments for various scientific and technological missions. These include communications satellites like Starlink; space stations such as the ISS; scientific satellites like the Hubble; Earth observation satellites from companies like Planet Labs, Umbra, and HawkEye 360; GPS; miniature CubeSats for education and research; and military/defense satellites.

Loading next visibility...
Identifier
59893, 2024-100J
Orbit
LEO
Country
Flag of USUS
Related business
Manufacturer
SpaceX/Seattle
Mission
Operational Commercial Communications
Bus & Motor
STARLINK V2M, Unknown motor
Mass
730 kg wet, ~700 kg dry
Launch date (UTC)
2024-05-28 (2 years ago)
Launch vehicle
FALCON 9
Launch site
Air Force Eastern Test Range (AFETR)
Object type
Payload
Rocket body
Debris
Shape & HBR
Box + 2 Pan, 17.7 m
Radar Cross Section
33.884 m², Large (>1 m²)

Expand to show TLE details & history
Last TLE update: 12 hours ago

TLE from 12 hours ago
0 STARLINK-31963
1 59893U 24100J   26036.11618677  .00001758  00000-0  73350-4 0  9998
2 59893  43.0044 309.4878 0000456 335.2045  24.8785 15.27587684 96177
Epoch: 2026-02-05T02:47Z
TLE epoch observation values (Epoch: 2026-02-05T02:47:18.536Z)
Latitude
-0.00002°
Longitude
132.38751°
Altitude
482.518 km
Speed
7.626 km/s
True Right ascension
20h 37m 57s
True Declination
0° 00' 00"
Sunlit
Object was in daylight at epoch
Visualization orbit readout
Latitude
Unknown
Longitude
Unknown
Altitude
Unknown
Speed
Unknown
Apparent Right ascension
Unknown
Apparent Declination
Unknown
Sunlit
N/A
Visualization observer readout
Local Sidereal Time
17:14:43
Azimuth
Unknown
Elevation
Unknown
Doppler factor
Unknown
Orbital elements
Apogee altitude
485.283 km
Perigee altitude
484.658 km
Semi-major axis
6,863.108 km
Eccentricity
0.00005
Inclination
43.0044°
RAAN
309.4878°
Arg. of periapsis
335.2045°
True anomaly
24.8807°
Mean anomaly
24.8785°
Eccentric anomaly
24.8796°
Mean motion
3.81735 °/min
Orbital period
94.31 mins
BSTAR
0.00007335
Loading maneuver chart data...
Computing Atmospheric mass density...
Loading historical data...
Loading historical data...
Loading historical data...
Loading historical data...
Loading historical data...
Loading historical data...
Loading historical data...

Documentation

Showing up to 5 results
|